CZ-6A DEB, 54546

Orbit data source: Space-Track

CZ-6A DEB, 54546 is space debris in SSO originally from a launch on Fri, 11 Nov 2022 UTC launched from the Taiyaun Space Center, China (TSC). Debris objects in space refer to the collection of defunct objects orbiting the Earth. Examples of debris include non-operational satellites, rocket bodies, and fragments generated from explosions, collisions, or faulty payload assembly.

Loading next visibility...
Identifier
54546, 2022-151KW
Orbit
SSO
Country
Flag of CNCN / PRC
Related business
Manufacturer
SAST
Mission
Spacecraft
Bus & Motor
Unknown
Mass
Unknown
Launch date (UTC)
2022-11-11 (4 years ago)
Launch vehicle
Unknown
Launch site
Taiyaun Space Center, China (TSC)
Object type
Payload
Rocket body
Debris
Shape & HBR
Unknown shape, 0.3 m
Radar Cross Section
Medium (>0.1 m² and <1 m²)

Expand to show TLE details & history
Last TLE update: 2 days ago

TLE from 2 days ago
0 CZ-6A DEB
1 54546U 22151KW  26171.25077052  .00000106  00000-0  76518-4 0  9998
2 54546  98.7922 178.5257 0022842 325.5222  34.4469 14.15646038185908
Epoch: 2026-06-20T06:01Z
TLE epoch observation values (Epoch: 2026-06-20T06:01:06.572Z)
Latitude
-0.00005°
Longitude
179.78024°
Altitude
829.434 km
Speed
7.445 km/s
True Right ascension
11h 54m 06s
True Declination
0° 00' 00"
Sunlit
Object was in daylight at epoch
Visualization orbit readout
Latitude
Unknown
Longitude
Unknown
Altitude
Unknown
Speed
Unknown
Apparent Right ascension
Unknown
Apparent Declination
Unknown
Sunlit
N/A
Visualization observer readout
Local Sidereal Time
21:24:36
Azimuth
Unknown
Elevation
Unknown
Doppler factor
Unknown
Orbital elements
Apogee altitude
853.765 km
Perigee altitude
820.802 km
Semi-major axis
7,215.421 km
Eccentricity
0.00228
Inclination
98.7922°
RAAN
178.5257°
Arg. of periapsis
325.5222°
True anomaly
34.59531°
Mean anomaly
34.4469°
Eccentric anomaly
34.52107°
Mean motion
3.5412 °/min
Orbital period
101.66 mins
BSTAR
0.000076518
Loading maneuver chart data...
Computing Atmospheric mass density...
Loading historical data...
Loading historical data...
Loading historical data...
Loading historical data...
Loading historical data...
Loading historical data...
Loading historical data...

Documentation

Showing up to 5 results
|